Wind_Speed
4 4 4 3 2 2 3 4 5 5 4 4 4 5 6 5 4 5 6 6 7 8 10 11 10 11 11 12 13 15 16 17 17 17 16 15 13 11 10 9 8 6 5 4 4 5 3 4 12
4 4 4 3 0 2 1 2 4 5 5 4 4 4 4 4 4 4 4 4 4 5 7 9 10 10 10 10 11 13 14 15 16 16 16 15 13 12 10 9 9 8 5 3 4 5 3 1 8
4 6 7 6 3 1 2 1 4 5 5 5 4 3 4 3 3 2 3 3 2 2 3 5 7 9 9 9 9 10 12 13 14 15 15 15 15 14 12 10 9 8 7 5 4 5 4 2 6
5 7 8 9 7 4 3 3 4 5 7 6 4 2 3 4 4 2 2 4 3 2 1 2 4 6 7 6 7 8 9 10 12 12 13 13 14 15 13 12 11 9 8 7 6 6 5 2 5
3 4 5 6 7 7 5 4 4 5 6 6 5 3 3 4 5 4 3 3 5 4 2 1 1 3 4 4 5 6 6 6 8 9 10 11 12 13 13 12 12 11 11 10 8 7 5 2 3
2 2 1 1 2 5 5 4 4 4 5 5 5 5 4 6 6 5 5 4 4 4 4 3 3 1 2 3 4 5 4 3 2 4 6 7 8 11 12 13 12 13 12 11 10 8 6 3 2
3 3 3 3 2 3 4 3 3 3 4 6 7 7 6 4 5 6 6 5 4 3 3 4 5 5 3 2 3 4 3 3 1 2 3 4 4 5 8 11 13 14 13 11 10 9 7 5 2
5 6 5 4 2 0 3 2 2 3 2 2 4 5 6 6 5 5 6 5 4 2 1 3 6 7 7 5 3 3 3 3 2 2 4 5 4 3 4 5 9 12 12 10 9 8 7 5 4
7 8 7 7 4 3 3 4 3 4 4 4 4 4 5 6 6 4 4 4 4 4 2 3 5 8 9 9 8 6 5 3 2 3 4 5 5 5 5 4 3 7 8 8 7 7 6 5 4
10 10 9 8 7 6 6 6 5 5 7 8 8 8 7 7 7 7 4 2 2 3 4 5 5 8 10 11 11 10 9 7 5 6 5 6 6 6 6 5 4 4 5 5 5 5 5 4 3
13 12 11 11 11 11 10 11 11 10 10 10 11 11 11 11 11 10 8 6 5 4 4 5 6 8 11 13 14 13 12 10 9 8 9 9 9 7 6 5 5 5 4 2 1 1 2 3 2
14 13 14 14 14 15 15 15 15 16 15 16 16 16 15 14 14 13 11 9 9 9 8 7 8 10 12 14 15 15 14 13 11 11 11 11 11 9 8 8 7 6 7 7 7 6 5 3 2
17 16 17 17 17 18 19 18 19 20 19 17 17 18 17 17 17 17 16 15 12 12 12 11 11 12 13 14 15 17 16 15 14 14 13 13 12 11 10 10 10 9 9 10 11 11 10 9 7
21 20 21 21 22 22 23 24 25 24 23 21 20 20 21 21 22 22 21 20 18 16 14 14 14 14 14 16 17 17 18 18 18 18 17 17 16 15 13 11 11 12 13 14 15 14 12 11 11
24 25 26 26 27 26 28 31 30 28 28 27 26 25 25 26 26 27 27 26 24 23 21 20 18 18 17 16 18 19 20 20 21 21 20 21 20 18 16 15 14 14 16 18 19 18 16 16 16
27 28 30 32 32 32 33 37 34 33 32 32 31 30 29 29 29 30 30 30 29 27 26 24 21 20 20 18 17 19 21 22 22 22 22 22 23 22 19 17 17 18 19 20 21 19 20 21 21
31 33 35 37 36 36 37 41 39 38 36 36 36 35 34 33 33 33 33 33 33 31 29 27 24 22 22 21 19 20 22 22 23 22 23 23 24 24 21 19 19 21 21 21 21 22 23 24 24
34 36 38 40 40 40 41 43 43 42 41 40 40 40 39 38 37 37 36 35 35 34 33 30 28 26 25 25 24 24 24 25 26 26 25 26 27 27 23 21 22 23 24 23 22 23 23 25 26
35 37 39 41 41 41 43 45 45 44 43 43 42 41 40 40 38 38 38 37 36 36 35 33 32 31 30 30 30 29 28 27 28 29 29 29 30 29 25 23 24 24 24 24 24 23 24 25 25
36 37 39 40 40 41 41 43 43 42 41 40 39 38 36 35 34 34 35 36 37 37 37 36 35 35 35 34 35 35 32 29 30 32 33 33 32 31 27 25 24 24 24 24 25 26 26 24 23
38 39 40 40 40 40 40 41 40 39 37 36 34 33 31 29 28 28 30 32 34 36 38 38 38 38 38 38 39 40 37 34 34 35 36 37 35 33 30 27 25 24 24 25 26 26 24 23 22
41 42 42 42 42 42 41 40 40 35 34 32 32 31 29 28 27 27 27 29 31 35 38 39 39 39 40 41 43 45 41 38 39 39 39 39 37 34 32 28 26 25 25 26 26 25 22 22 23
45 46 47 46 46 46 46 45 44 40 37 35 35 34 32 31 30 29 28 29 31 35 39 40 40 41 42 43 46 49 46 41 43 43 39 37 36 34 32 29 28 27 27 27 27 24 22 22 24
44 46 48 48 47 48 45 45 45 46 40 39 38 37 36 35 34 33 32 32 33 35 39 41 42 44 45 45 48 50 49 44 44 45 41 37 35 34 31 28 28 29 28 28 27 25 24 24 24
35 36 38 39 40 40 45 44 45 46 43 41 40 40 40 39 38 38 37 36 36 35 38 40 42 44 45 45 46 48 47 47 47 46 44 40 37 34 31 29 28 28 28 28 28 26 26 26 26
25 23 22 23 25 29 33 35 38 37 39 39 38 38 38 39 40 39 39 39 37 36 37 38 39 40 41 41 44 44 44 46 49 49 46 43 38 33 30 27 27 28 29 28 29 30 30 29 27
20 17 13 8 6 8 13 20 26 29 32 33 32 31 31 33 33 35 36 36 36 34 34 36 36 35 36 36 37 40 42 45 47 48 45 40 35 29 23 21 24 27 29 30 32 32 30 29 27
22 19 13 10 8 6 6 5 7 12 16 16 15 14 15 17 20 24 27 28 27 27 28 32 33 31 32 33 35 38 41 43 40 39 35 30 24 17 15 19 24 29 32 33 33 31 28 27 26
20 19 17 15 14 12 10 10 8 4 4 5 7 8 7 5 6 10 15 19 21 22 24 27 29 29 28 29 31 33 32 31 28 24 21 18 15 14 18 22 26 28 29 29 29 27 24 24 25
22 19 17 16 16 16 15 14 10 5 5 7 10 11 9 8 6 4 3 3 5 8 11 15 19 21 22 22 23 21 19 16 15 13 12 12 12 15 18 21 23 25 25 25 24 24 23 23 24
Wind_Direction
119 115 111 115 119 121 96 76 62 46 49 52 50 56 71 92 117 132 125 110 98 84 74 77 92 97 91 83 73 62 62 70 76 79 79 77 75 72 66 57 57 59 59 47 26 17 5 206 205
99 99 97 92 112 197 154 75 50 33 24 20 32 43 58 76 95 126 140 129 114 98 75 73 86 96 94 91 83 70 65 71 78 81 80 78 74 70 66 59 54 52 47 29 12 11 2 198 198
102 97 82 73 66 158 169 80 38 23 19 11 13 29 49 61 77 119 158 177 154 116 81 72 79 90 95 99 97 85 76 74 76 80 80 80 76 70 66 61 55 53 49 38 21 17 22 120 171
115 101 81 72 69 72 78 56 35 18 11 7 355 8 52 58 55 72 150 185 186 172 131 79 81 89 98 109 112 105 95 82 76 76 76 78 78 73 68 65 56 49 44 40 34 27 34 93 164
137 123 89 69 58 46 30 16 22 22 14 12 14 28 46 51 44 53 88 156 179 181 197 210 141 107 111 126 134 129 119 98 79 74 72 72 75 76 71 67 61 50 42 38 34 28 35 60 157
202 183 161 83 69 37 30 16 15 34 39 30 32 42 49 56 48 60 84 109 143 169 197 219 219 203 165 154 153 152 151 140 93 63 61 62 64 70 69 64 59 50 41 39 39 31 30 48 145
245 233 224 148 109 28 27 21 13 29 51 49 47 43 43 48 55 68 76 92 113 151 199 227 230 230 234 211 170 165 185 202 239 317 358 18 37 51 60 62 56 48 39 37 42 43 40 48 91
255 246 233 213 217 8 17 11 342 319 345 28 35 35 37 33 43 59 60 57 64 96 197 229 236 237 242 246 225 187 193 219 256 302 339 347 344 357 22 50 53 48 40 35 42 49 55 68 95
247 248 244 244 248 246 269 281 290 292 299 300 307 328 350 359 359 12 39 42 34 19 342 269 241 238 242 247 242 227 227 237 265 298 330 344 337 328 340 351 22 43 47 42 45 52 59 76 104
236 240 244 247 251 246 235 242 248 260 276 284 287 290 297 314 322 321 323 348 6 358 346 324 278 253 248 247 243 242 246 251 264 278 294 309 321 319 323 333 337 4 42 57 61 66 63 68 84
233 236 236 237 245 249 244 240 243 247 256 268 276 276 278 288 301 309 305 301 301 295 293 296 283 267 257 251 247 244 245 245 254 269 280 287 293 302 304 305 318 329 338 314 312 22 53 63 67
236 238 239 242 250 255 256 253 250 249 253 259 263 267 270 277 285 294 297 296 287 279 273 271 271 268 260 252 248 245 242 241 251 262 273 278 280 284 286 277 280 295 306 299 284 281 283 279 285
241 243 244 246 252 259 261 259 256 253 251 256 260 266 269 272 278 281 283 288 283 275 272 269 267 269 264 255 249 247 246 246 248 255 265 272 272 274 274 266 265 274 287 293 287 283 279 275 278
243 245 246 247 249 252 256 257 255 254 252 257 264 272 277 279 283 285 284 286 286 284 278 274 267 262 261 255 247 244 244 245 247 253 263 268 266 265 265 261 260 267 276 283 284 278 282 285 289
249 250 251 251 251 253 256 257 257 259 259 262 267 272 275 279 283 288 288 288 288 291 290 286 278 256 250 251 249 245 243 247 251 256 262 265 263 258 257 255 259 267 274 279 283 280 282 289 294
256 257 257 256 256 256 258 261 261 262 264 266 267 269 272 275 278 281 285 287 288 289 292 292 286 265 249 248 253 253 250 251 253 255 256 257 258 257 254 249 260 270 273 276 282 283 285 290 293
262 263 262 263 261 262 262 263 264 263 264 265 267 269 270 271 273 275 277 279 283 285 287 288 284 274 256 249 250 255 255 253 252 251 251 252 257 259 253 247 259 268 269 272 279 281 283 287 291
267 266 266 266 265 265 264 264 265 265 265 265 265 266 267 267 267 268 269 270 273 277 279 281 279 274 266 259 255 255 256 256 256 255 255 255 258 257 250 252 262 268 269 271 276 280 282 288 292
272 272 271 269 267 266 265 265 265 264 264 264 263 263 264 265 265 265 265 264 264 266 270 272 272 271 269 267 263 259 257 257 259 260 259 257 258 256 251 257 262 266 270 274 281 285 289 295 294
276 275 274 273 271 270 268 268 268 267 266 265 265 264 264 264 266 266 266 264 262 260 261 263 265 266 267 267 266 264 261 258 260 263 263 258 256 254 252 258 260 264 269 277 285 291 295 295 292
278 276 275 275 275 274 273 272 270 268 267 265 264 263 263 264 266 269 271 269 265 261 258 257 258 261 263 263 265 267 266 264 264 264 264 258 253 251 252 256 258 263 269 278 286 293 296 293 290
280 279 278 278 278 279 277 276 273 270 267 265 262 261 261 261 264 271 279 279 269 260 254 252 251 255 260 260 261 264 265 266 267 266 265 260 252 249 252 254 257 262 270 280 287 291 291 289 288
283 280 277 276 275 274 275 273 272 269 265 264 263 262 262 263 265 273 281 283 276 263 253 248 245 247 252 257 258 259 261 264 266 264 265 264 256 250 251 252 254 262 271 279 285 286 286 285 286
285 281 277 274 271 269 268 267 268 267 264 262 262 264 265 267 270 275 280 284 280 268 256 249 245 244 247 253 257 256 256 259 263 262 261 262 254 250 251 250 252 260 267 274 277 278 281 283 283
298 290 283 278 272 267 264 264 264 266 264 262 261 263 265 268 271 276 280 283 279 269 259 252 249 246 248 253 256 255 255 259 263 264 261 259 253 251 249 248 253 261 268 272 273 277 283 283 282
318 307 295 284 272 264 263 259 261 263 261 260 258 259 262 266 271 276 280 281 276 268 260 255 253 251 252 256 258 262 262 263 266 268 265 259 253 250 249 253 260 268 274 276 279 283 284 281 278
355 350 344 338 316 289 270 263 257 255 258 257 255 254 257 262 267 273 275 273 272 269 261 255 255 255 255 258 263 267 269 270 268 268 261 250 244 246 252 263 271 276 277 280 283 284 284 281 273
12 16 24 33 41 40 26 355 294 267 257 250 244 242 249 258 264 265 265 268 271 271 263 254 254 259 262 263 268 271 272 271 265 256 247 237 238 244 260 272 275 277 277 278 279 280 283 280 269
21 28 41 52 55 52 43 39 29 38 103 134 156 163 173 201 242 257 260 263 263 260 255 251 251 258 265 266 269 271 266 261 249 236 230 233 240 252 263 269 274 276 275 275 278 279 278 273 263
27 35 41 48 49 48 46 41 38 57 91 124 142 144 147 142 114 110 146 195 217 226 234 238 242 248 253 253 255 251 241 232 227 232 240 244 250 256 260 265 270 271 271 274 277 276 272 268 260
Height
5915 5914 5915 5916 5917 5917 5917 5919 5919 5919 5919 5918 5918 5917 5916 5915 5916 5917 5914 5913 5913 5913 5913 5913 5912 5912 5912 5911 5911 5910 5909 5908 5906 5904 5903 5901 5900 5900 5899 5898 5897 5896 5895 5894 5893 5892 5892 5892 5892
5915 5915 5916 5916 5916 5916 5917 5918 5918 5919 5919 5918 5918 5917 5916 5914 5914 5914 5913 5913 5913 5913 5913 5913 5912 5912 5912 5912 5912 5912 5911 5911 5909 5907 5905 5903 5902 5900 5899 5898 5897 5896 5895 5895 5894 5893 5892 5891 5892
5915 5916 5917 5917 5916 5916 5917 5917 5917 5918 5918 5918 5918 5917 5916 5914 5913 5913 5913 5913 5913 5913 5913 5913 5913 5913 5913 5913 5913 5913 5913 5913 5912 5910 5908 5906 5904 5902 5901 5900 5898 5897 5896 5895 5895 5894 5892 5892 5892
5915 5917 5918 5918 5917 5917 5917 5916 5917 5917 5918 5917 5917 5917 5916 5914 5913 5913 5912 5912 5913 5913 5913 5913 5913 5913 5913 5913 5914 5914 5914 5914 5913 5912 5910 5908 5906 5904 5903 5902 5900 5898 5897 5896 5895 5894 5893 5893 5892
5915 5917 5918 5919 5919 5918 5917 5916 5916 5917 5918 5917 5917 5917 5916 5915 5914 5912 5912 5912 5912 5912 5912 5913 5913 5913 5913 5913 5913 5914 5914 5915 5914 5913 5912 5910 5908 5906 5905 5904 5902 5900 5898 5897 5895 5895 5894 5894 5893
5916 5917 5919 5919 5919 5919 5918 5917 5916 5916 5917 5917 5917 5916 5916 5916 5914 5913 5912 5912 5911 5911 5911 5911 5912 5912 5913 5913 5913 5914 5914 5915 5914 5914 5913 5911 5910 5909 5907 5906 5904 5902 5900 5898 5896 5896 5895 5894 5894
5916 5917 5918 5918 5918 5919 5918 5917 5917 5917 5917 5917 5916 5916 5916 5915 5914 5913 5912 5911 5910 5910 5911 5911 5911 5911 5912 5912 5913 5913 5913 5913 5913 5913 5913 5912 5911 5910 5909 5907 5906 5904 5902 5900 5898 5896 5895 5895 5894
5915 5917 5916 5916 5917 5918 5918 5917 5917 5917 5916 5916 5916 5916 5916 5916 5915 5913 5912 5911 5910 5910 5910 5910 5910 5910 5911 5912 5912 5912 5912 5912 5912 5913 5912 5912 5911 5910 5909 5908 5907 5905 5903 5901 5899 5897 5896 5895 5895
5913 5915 5914 5915 5916 5917 5917 5916 5916 5916 5915 5915 5915 5915 5915 5915 5914 5913 5911 5910 5909 5909 5908 5908 5908 5908 5909 5910 5911 5911 5911 5911 5911 5911 5911 5910 5910 5909 5908 5907 5907 5905 5904 5902 5900 5898 5896 5895 5894
5911 5912 5912 5913 5914 5915 5915 5915 5914 5914 5914 5914 5914 5914 5913 5912 5912 5911 5910 5909 5908 5907 5907 5907 5907 5906 5907 5907 5908 5909 5909 5909 5909 5910 5909 5909 5909 5908 5907 5906 5905 5905 5903 5902 5900 5898 5897 5896 5895
5908 5908 5909 5909 5910 5911 5912 5912 5911 5911 5911 5911 5911 5911 5910 5910 5909 5909 5908 5908 5907 5906 5905 5905 5904 5904 5904 5905 5905 5906 5907 5907 5907 5907 5907 5907 5907 5906 5905 5904 5904 5904 5903 5901 5900 5899 5897 5896 5895
5905 5906 5906 5907 5907 5907 5908 5908 5908 5907 5907 5907 5906 5906 5906 5906 5906 5905 5906 5906 5905 5904 5903 5903 5902 5902 5902 5902 5902 5902 5903 5904 5904 5904 5904 5904 5904 5904 5903 5902 5902 5901 5901 5900 5899 5898 5897 5896 5895
5903 5903 5904 5904 5904 5903 5903 5903 5902 5902 5902 5902 5902 5902 5903 5903 5902 5902 5902 5902 5902 5902 5901 5900 5899 5899 5899 5899 5898 5899 5899 5900 5901 5901 5901 5901 5901 5901 5900 5899 5899 5899 5898 5897 5896 5896 5895 5895 5894
5899 5899 5899 5899 5899 5898 5898 5897 5897 5896 5898 5899 5899 5899 5899 5899 5899 5898 5898 5898 5899 5899 5898 5898 5897 5896 5896 5896 5895 5895 5895 5896 5896 5897 5897 5897 5897 5897 5897 5896 5896 5895 5894 5894 5893 5893 5892 5892 5892
5894 5894 5894 5893 5893 5893 5893 5890 5891 5892 5893 5894 5895 5895 5895 5895 5894 5894 5893 5894 5895 5895 5895 5895 5893 5893 5892 5892 5892 5891 5891 5891 5891 5892 5893 5892 5892 5892 5892 5892 5892 5892 5891 5890 5890 5889 5889 5888 5888
5888 5888 5888 5887 5887 5888 5888 5884 5886 5886 5887 5887 5888 5889 5889 5889 5888 5888 5887 5887 5888 5889 5889 5889 5888 5888 5887 5888 5888 5887 5886 5885 5885 5886 5886 5887 5887 5887 5888 5888 5888 5888 5888 5887 5886 5886 5885 5884 5883
5883 5882 5881 5879 5880 5880 5880 5876 5878 5878 5879 5880 5880 5880 5881 5882 5882 5882 5882 5881 5881 5882 5883 5883 5883 5883 5883 5883 5883 5882 5881 5880 5880 5880 5880 5881 5882 5882 5883 5883 5883 5883 5883 5883 5883 5882 5881 5880 5879
5875 5874 5872 5871 5871 5871 5869 5867 5868 5869 5870 5871 5871 5871 5871 5872 5873 5873 5874 5875 5875 5874 5874 5875 5876 5876 5877 5877 5876 5876 5875 5875 5875 5875 5875 5876 5876 5876 5877 5878 5878 5877 5877 5878 5878 5878 5877 5877 5875
5867 5865 5863 5861 5861 5861 5859 5857 5858 5859 5859 5860 5861 5861 5861 5862 5863 5864 5865 5866 5867 5867 5866 5867 5868 5869 5869 5870 5869 5869 5868 5869 5869 5869 5869 5869 5870 5871 5871 5872 5872 5872 5872 5872 5872 5872 5872 5871 5869
5858 5856 5853 5850 5850 5849 5848 5847 5847 5848 5849 5849 5850 5850 5851 5852 5853 5854 5855 5856 5858 5859 5859 5860 5861 5862 5862 5862 5862 5862 5862 5862 5862 5862 5862 5862 5863 5865 5866 5866 5867 5867 5867 5867 5866 5865 5865 5864 5863
5847 5845 5842 5841 5839 5838 5837 5837 5837 5838 5838 5839 5840 5841 5842 5844 5845 5845 5846 5848 5849 5850 5851 5852 5853 5854 5855 5855 5854 5854 5854 5855 5855 5855 5855 5855 5855 5857 5859 5860 5861 5861 5861 5861 5860 5859 5859 5858 5857
5837 5834 5832 5830 5829 5827 5827 5827 5826 5828 5829 5830 5831 5833 5835 5837 5838 5839 5839 5839 5840 5841 5842 5843 5845 5847 5847 5847 5847 5847 5847 5847 5847 5847 5847 5847 5848 5850 5852 5854 5855 5854 5854 5854 5854 5854 5854 5853 5852
5825 5822 5819 5818 5816 5816 5815 5815 5816 5819 5820 5821 5822 5824 5826 5829 5830 5831 5831 5831 5832 5832 5833 5833 5835 5837 5838 5838 5838 5838 5838 5839 5838 5838 5839 5840 5842 5843 5845 5846 5848 5848 5848 5847 5847 5847 5847 5847 5846
5810 5807 5804 5802 5802 5802 5803 5803 5803 5805 5809 5811 5813 5815 5817 5819 5821 5822 5822 5823 5823 5823 5824 5825 5826 5827 5829 5830 5830 5831 5831 5832 5832 5830 5831 5833 5834 5836 5837 5839 5841 5842 5842 5842 5841 5841 5840 5840 5839
5798 5793 5789 5787 5787 5788 5786 5790 5788 5793 5796 5799 5803 5805 5807 5809 5811 5812 5813 5814 5814 5814 5815 5817 5818 5819 5820 5821 5821 5821 5822 5823 5824 5824 5825 5826 5827 5828 5829 5831 5833 5835 5836 5836 5835 5834 5833 5832 5831
5791 5784 5780 5777 5775 5774 5773 5776 5777 5780 5782 5786 5790 5793 5796 5798 5800 5802 5803 5804 5805 5806 5806 5807 5809 5811 5813 5813 5813 5811 5812 5814 5815 5815 5817 5818 5819 5820 5821 5823 5825 5827 5828 5829 5828 5827 5826 5825 5824
5788 5780 5775 5771 5768 5767 5767 5768 5769 5770 5771 5775 5779 5783 5786 5789 5791 5793 5794 5795 5796 5797 5798 5799 5801 5803 5804 5805 5805 5805 5806 5806 5806 5806 5808 5809 5811 5812 5814 5816 5819 5820 5821 5821 5820 5819 5818 5817 5817
5789 5781 5775 5771 5769 5768 5767 5767 5766 5764 5765 5768 5771 5776 5780 5783 5785 5786 5787 5787 5788 5788 5789 5790 5793 5795 5796 5798 5799 5798 5798 5798 5798 5799 5800 5802 5803 5804 5808 5811 5812 5813 5814 5813 5812 5811 5810 5809 5809
5792 5786 5779 5775 5771 5769 5768 5770 5766 5764 5764 5766 5770 5774 5778 5781 5783 5782 5782 5782 5781 5781 5781 5782 5785 5788 5789 5791 5792 5792 5792 5792 5793 5794 5795 5796 5798 5800 5803 5805 5806 5807 5806 5805 5804 5802 5801 5801 5801
5795 5789 5784 5780 5776 5773 5771 5774 5768 5767 5767 5768 5770 5773 5778 5780 5781 5780 5779 5778 5777 5777 5776 5777 5779 5782 5784 5785 5786 5787 5787 5788 5789 5791 5791 5793 5795 5797 5799 5800 5800 5800 5799 5798 5796 5795 5794 5794 5794